Location: Rounton
(54.4000°N, 1.3500°W)
Time: 09:29:05
(UTC+01:00)

A-11 Canister half - Pass Details

Date: 26 June 2022
Orbit: 1525 x 1683 km, 47.3° (Epoch: 10 August)

Event Time Altitude Azimuth Distance (km) Brightness Sun altitude
Rises 02:39:08 0° 283° (WNW) 4,681 11.5 -9.8°
Reaches altitude 10° 02:43:44 10° 263° (W) 3,695 10.7 -9.6°
Maximum altitude 02:48:41 16° 230° (SW) 3,253 10.2 -9.3°
Enters shadow 02:53:37 10° 198° (SSW) 3,701 10.3 -9.0°
